Content
SEND FEEDBACK

Daily
Averages
Monthly
Summary
Canada

BIBLE HILL, NOVA SCOTIA


Home > North America > Canada > Nova Scotia
Elevation: 131 feet     Latitude: 45 22N     Longitude: 063 16W

WEATHER
 
SELECT A DAY
Number of Records: 94,939;   Date Range: 6/19/04 - 4/19/14
 
SHARE

PRINT THIS DATA

[ ← Previous Day ]
WEATHER ALMANAC - APRIL 18, 2013
[ Next Day → ]
[ °C ]   °F
Weather ElementAverageHighLow
Temperature41.4 °F50 °F (5:00 pm)27 °F (7:00 am)
Dewpoint19.9 °F26.4 °F (11:00 pm)12.2 °F (6:00 pm)
Humidity42.4 %83 % (7:00 am)21 % (3:00 pm)
Barometer30.39 in30.47 in (10:00 am)30.27 in (2:00 am)
Wind Speed6.2 mph13.8 mph (9:00 pm)
Weather ElementAverage
Wind DirectionSW (220.4 °)

Weather ElementTotal
Precipitation---
Heating Degree Days26.5 (Base 65)
Averaged from 25 records on April 18, 2013
WEATHER CONDITIONS BREAKOUT
WIND DIRECTION BREAKOUT
WEATHER BY HOUR - APRIL 18, 2013
[ °C ]   °F
Local TimeTemperatureDewpointHumidityBarometerVisibilityWind DirectionWind SpeedGust SpeedPrecipitationEventsConditions
2:00 AM37.6 °F20.7 °F51 %30.27 inNW (310°)3.5 mph
3:00 AM36.0 °F20.0 °F40 %30.27 inWNW (300°)3.5 mph
3:00 AM35.8 °F20.3 °F53 %30.27 inWNW (300°)3.5 mph
4:00 AM35.1 °F20.3 °F55 %30.30 inNNW (330°)4.6 mph
5:00 AM34.0 °F21.9 °F61 %30.35 inNW (310°)2.3 mph
6:00 AM28.6 °F23.0 °F80 %30.39 inNorth (350°)3.5 mph
7:00 AM27.0 °F22.5 °F83 %30.42 inNNE (20°)1.2 mph
9:00 AM36.0 °F18.0 °F35 %30.46 inNNE (20°)8.1 mph
9:00 AM36.5 °F18.5 °F48 %30.46 inNNE (20°)8.1 mph
10:00 AM37.8 °F17.8 °F44 %30.47 inNE (40°)3.5 mph
11:00 AM41.7 °F15.3 °F34 %30.46 inNorth (10°)3.5 mph
12:00 PM45.0 °F15.8 °F31 %30.45 inNorth (350°)5.8 mph
1:00 PM48.2 °F21.2 °F34 %30.45 inNNW (330°)4.6 mph
2:00 PM46.9 °F21.6 °F37 %30.44 inSW (230°)9.2 mph
3:00 PM47.0 °F20.0 °F21 %30.42 inWest (260°)5.8 mph
3:00 PM47.3 °F19.6 °F33 %30.42 inWest (260°)5.8 mph
4:00 PM49.6 °F20.7 °F32 %30.40 inWest (260°)6.9 mph
5:00 PM50.0 °F14.9 °F25 %30.39 inWSW (250°)6.9 mph
6:00 PM49.1 °F12.2 °F23 %30.38 inWest (260°)5.8 mph
7:00 PM49.1 °F13.8 °F24 %30.36 inWest (260°)4.6 mph
8:00 PM44.6 °F21.9 °F41 %30.36 inSW (220°)5.8 mph
9:00 PM45.0 °F24.0 °F30 %30.37 inSSW (210°)13.8 mph
9:00 PM44.8 °F23.5 °F43 %30.37 inSSW (210°)13.8 mph
10:00 PM42.8 °F22.8 °F45 %30.38 inSW (220°)11.5 mph
11:00 PM40.6 °F26.4 °F57 %30.35 inSouth (180°)9.2 mph
Hourly data recorded from CZDB, located 10.29 miles away from Bible Hill, Nova Scotia







STORIES FROM OUR PARTNERS